Location: Ostrava
(49.8330°N, 18.2830°E)
Time: 02:48:05
(UTC+02:00)

Envisat - Pass Details

Date: 21 January 2022
Orbit: 764 x 765 km, 98.2° (Epoch: 22 May)

Event Time Altitude Azimuth Distance (km) Brightness Sun altitude
Rises 03:22:57 0° 28° (NNE) 3,241 6.7 -39.8°
Reaches altitude 10° 03:26:09 10° 49° (NE) 2,309 6.1 -39.3°
Maximum altitude 03:29:19 16° 88° (E) 1,894 5.6 -38.8°
Drops below altitude 10° 03:32:29 10° 127° (SE) 2,299 5.8 -38.3°
Sets 03:35:38 0° 148° (SSE) 3,219 6.4 -37.8°
